ISS DEB (44305 NORAD) Tracking and Keplerian Element Data

This shows tracking and keplerian element data for the satellite.

Feedback or suggestion? Click here.




ElementValue
Catalog44305
NameISS DEB
Epoch Orbit6250
Epoch Day185.86230005
Epoch Year2020
RAAN243.431
Inclination51.6341
Eccentricity0.0003393
Argument of Perigee58.6919
Mean Anonmoly301.4408
Mean Motion15.64840185
Decay Rate0.00015336
L11 44305U 98067QC 20185.86230005 .00015336 00000-0 15928-3 0 9992
L22 44305 51.6341 243.4310 0003393 58.6919 301.4408 15.64840185 62506

Live tracking and technical data element details for ISS DEB (NORAD 44305). ISS DEB can be tracked NOW for your location showing map with azimuth and elevation plus other details from your city location.

Track the satellite on the map from your city or location and see movement details for azimuth, elevation, latitude, longitude, range, height, and movement on the map or in text.







IsCatalogInMostPopularTable: catalog: 44305, numindb: 474
Update: records affected: 1



GetName: 44305 ISS DEB

Hit Count: updated at: Sun, 05 Jul 2020 16:06:48 GMT